TimeEST,TemperatureF,Dew PointF,Humidity,Sea Level PressureIn,VisibilityMPH,Wind Direction,Wind SpeedMPH,Gust SpeedMPH,PrecipitationIn,Events,Conditions,WindDirDegrees,DateUTC
12:05 AM,66.6,58.8,76,30.15,10.0,South,4.6,-,N/A,,Overcast,190,2012-11-13 05:05:00
12:25 AM,66.6,59.0,77,30.16,10.0,WSW,5.8,-,N/A,,Overcast,240,2012-11-13 05:25:00
12:45 AM,54.7,50.0,84,30.20,4.0,NNW,12.7,23.0,N/A,,Overcast,330,2012-11-13 05:45:00
1:05 AM,52.7,49.5,89,30.22,4.0,NW,6.9,-,N/A,,Overcast,310,2012-11-13 06:05:00
1:30 AM,51.6,48.2,88,30.23,5.0,NW,12.7,18.4,N/A,,Overcast,320,2012-11-13 06:30:00
2:10 AM,49.6,45.5,86,30.24,5.0,NNW,4.6,16.1,N/A,,Overcast,330,2012-11-13 07:10:00
2:30 AM,49.6,45.5,86,30.24,7.0,NW,6.9,-,N/A,,Overcast,320,2012-11-13 07:30:00
2:55 AM,49.1,44.8,85,30.25,7.0,NW,8.1,17.3,N/A,,Overcast,310,2012-11-13 07:55:00
3:15 AM,48.9,42.3,78,30.25,10.0,NW,10.4,18.4,N/A,,Overcast,320,2012-11-13 08:15:00
3:55 AM,47.5,42.8,84,30.26,10.0,NNW,9.2,-,N/A,,Overcast,330,2012-11-13 08:55:00
4:15 AM,47.3,43.7,87,30.26,10.0,NNW,5.8,-,N/A,,Overcast,340,2012-11-13 09:15:00
4:40 AM,47.3,44.1,88,30.28,4.0,NW,5.8,-,N/A,,Overcast,320,2012-11-13 09:40:00
5:00 AM,46.9,44.2,90,30.29,4.0,North,4.6,-,N/A,,Overcast,350,2012-11-13 10:00:00
5:20 AM,46.6,43.0,87,30.31,4.0,NNW,5.8,-,N/A,,Overcast,330,2012-11-13 10:20:00
5:45 AM,45.9,43.3,91,30.30,3.0,North,5.8,-,N/A,,Overcast,360,2012-11-13 10:45:00
6:05 AM,45.3,42.4,90,30.32,3.0,North,8.1,-,N/A,,Overcast,350,2012-11-13 11:05:00
6:45 AM,44.6,40.8,87,30.35,4.0,NNW,6.9,-,N/A,,Overcast,330,2012-11-13 11:45:00
7:10 AM,44.1,41.0,89,30.36,4.0,North,8.1,16.1,N/A,,Overcast,350,2012-11-13 12:10:00
7:25 AM,43.7,40.3,88,30.36,3.0,North,6.9,-,N/A,,Overcast,350,2012-11-13 12:25:00
7:50 AM,43.3,40.1,88,30.38,5.0,NW,6.9,-,N/A,,Overcast,320,2012-11-13 12:50:00
8:10 AM,43.2,40.1,89,30.39,5.0,NNW,4.6,-,N/A,,Overcast,330,2012-11-13 13:10:00
8:35 AM,43.7,41.0,90,30.40,7.0,WNW,3.5,-,N/A,,Overcast,300,2012-11-13 13:35:00
8:55 AM,43.7,40.8,90,30.38,7.0,NNW,4.6,-,N/A,,Overcast,340,2012-11-13 13:55:00
9:15 AM,43.9,40.6,88,30.41,10.0,NNW,4.6,-,N/A,,Overcast,330,2012-11-13 14:15:00
9:35 AM,44.6,40.3,85,30.41,10.0,NNW,5.8,-,N/A,,Overcast,340,2012-11-13 14:35:00
10:00 AM,43.7,39.2,84,30.41,10.0,NNW,4.6,-,N/A,,Overcast,330,2012-11-13 15:00:00
10:20 AM,43.7,39.4,85,30.41,10.0,NW,4.6,-,N/A,,Overcast,310,2012-11-13 15:20:00
10:40 AM,44.2,35.8,72,30.42,10.0,NNW,11.5,-,N/A,,Overcast,330,2012-11-13 15:40:00
11:00 AM,44.6,33.3,64,30.41,10.0,NNW,6.9,-,N/A,,Mostly Cloudy,330,2012-11-13 16:00:00
11:25 AM,45.0,31.3,59,30.40,10.0,NW,11.5,-,N/A,,Scattered Clouds,320,2012-11-13 16:25:00
11:45 AM,45.7,31.3,57,30.39,10.0,NNW,9.2,-,N/A,,Scattered Clouds,330,2012-11-13 16:45:00
12:05 PM,46.4,32.0,57,30.39,10.0,North,8.1,-,N/A,,Clear,360,2012-11-13 17:05:00
12:25 PM,46.6,31.5,56,30.38,10.0,NNW,9.2,-,N/A,,Clear,340,2012-11-13 17:25:00
12:50 PM,47.5,28.9,49,30.37,10.0,NNW,8.1,-,N/A,,Clear,330,2012-11-13 17:50:00
1:10 PM,48.2,28.4,46,30.37,10.0,NW,10.4,16.1,N/A,,Clear,310,2012-11-13 18:10:00
1:50 PM,49.5,28.4,44,30.36,10.0,NNW,8.1,-,N/A,,Clear,330,2012-11-13 18:50:00
2:15 PM,50.0,28.4,43,30.35,10.0,North,8.1,-,N/A,,Clear,350,2012-11-13 19:15:00
2:35 PM,50.0,28.4,43,30.35,10.0,NNW,6.9,16.1,N/A,,Clear,340,2012-11-13 19:35:00
2:55 PM,50.2,27.3,41,30.36,10.0,NNW,9.2,-,N/A,,Clear,340,2012-11-13 19:55:00
3:15 PM,50.0,26.8,41,30.36,10.0,North,9.2,16.1,N/A,,Clear,350,2012-11-13 20:15:00
3:40 PM,50.0,27.3,41,30.37,10.0,NNW,9.2,-,N/A,,Clear,340,2012-11-13 20:40:00
4:00 PM,49.3,27.3,43,30.38,10.0,North,6.9,-,N/A,,Clear,350,2012-11-13 21:00:00
4:20 PM,48.6,27.7,44,30.38,10.0,NNW,5.8,-,N/A,,Clear,340,2012-11-13 21:20:00
4:40 PM,47.5,26.1,43,30.39,10.0,NNW,8.1,-,N/A,,Clear,340,2012-11-13 21:40:00
4:55 PM,46.6,26.2,45,30.39,10.0,NNW,5.8,-,N/A,,Clear,340,2012-11-13 21:55:00
5:25 PM,45.5,26.6,48,30.40,10.0,NNW,4.6,-,N/A,,Clear,330,2012-11-13 22:25:00
5:45 PM,45.5,26.6,48,30.41,10.0,NW,4.6,-,N/A,,Clear,320,2012-11-13 22:45:00
6:05 PM,44.6,26.6,49,30.42,10.0,NNW,3.5,-,N/A,,Clear,330,2012-11-13 23:05:00
6:30 PM,44.1,26.2,50,30.44,10.0,NNW,5.8,-,N/A,,Clear,340,2012-11-13 23:30:00
6:50 PM,43.2,26.1,51,30.45,10.0,NNW,3.5,-,N/A,,Clear,330,2012-11-13 23:50:00
7:10 PM,42.8,26.2,52,30.45,10.0,NNW,4.6,-,N/A,,Clear,330,2012-11-14 00:10:00
7:30 PM,42.3,26.4,54,30.46,10.0,NNW,4.6,-,N/A,,Clear,330,2012-11-14 00:30:00
7:55 PM,41.9,25.9,53,30.46,10.0,NNW,4.6,-,N/A,,Clear,330,2012-11-14 00:55:00
8:15 PM,41.4,25.7,54,30.46,10.0,NNW,3.5,-,N/A,,Clear,330,2012-11-14 01:15:00
8:55 PM,41.0,25.5,54,30.48,10.0,NW,4.6,-,N/A,,Clear,320,2012-11-14 01:55:00
9:40 PM,39.9,25.7,57,30.48,10.0,NNW,4.6,-,N/A,,Clear,330,2012-11-14 02:40:00
10:00 PM,39.6,25.7,58,30.48,10.0,NNW,6.9,-,N/A,,Clear,330,2012-11-14 03:00:00
10:20 PM,39.2,25.7,58,30.48,10.0,NW,5.8,-,N/A,,Clear,320,2012-11-14 03:20:00
10:45 PM,38.8,25.7,59,30.48,10.0,NNW,4.6,-,N/A,,Clear,330,2012-11-14 03:45:00
11:05 PM,38.5,25.7,60,30.48,10.0,NNW,3.5,-,N/A,,Clear,330,2012-11-14 04:05:00
11:25 PM,37.4,26.4,65,30.49,10.0,Calm,Calm,-,N/A,,Clear,0,2012-11-14 04:25:00
11:45 PM,36.7,26.6,67,30.49,10.0,Calm,Calm,-,N/A,,Clear,0,2012-11-14 04:45:00